Back to catalog

STARLINK-38002

AliveCommunicationsVLEO
NORAD 100042·PAYLOAD·🇺🇸 United States

Launched Jul 14, 2026 from Cape Canaveral Space Force Station

Loading…

Next Passes (next 24 hours)

TLE

FreshSource: Space-Track

Epoch: Sep 14, 2026, 08:44 UTC

1 A0042U 26161Q   26257.36396448  .00020701  00000-0  62205-3 0  9995
2 A0042  53.1611  26.7456 0001377  80.4912 279.6246 15.34402796  9665

Track STARLINK-38002 in real time with AllMySat

Download on the App Store